Showing default

EDRS-C, 44475

Orbit data source: Space-Track

EDRS-C, 44475 is a payload satellite owned by ESA (ESA) in GEO that was launched on Tue, 06 Aug 2019 UTC via an ARIANE 5ECA+ launch vehicle from the French Guiana (FRGUI). Payloads include a variety of satellites, spacecraft, and rockets equipped with specific instruments for various scientific and technological missions. These include communications satellites like Starlink; space stations such as the ISS; scientific satellites like the Hubble; Earth observation satellites from companies like Planet Labs, Umbra, and HawkEye 360; GPS; miniature CubeSats for education and research; and military/defense satellites.

Not visible in the next 10 days
EDRS-C details
Identifier
44475, 2019-049A
Orbit
GEO
Last TLE update1 day ago
Origin
Flag of ESAESA (ESA)
ManufacturerOHB
MissionOperational Civil Communications
Bus & MotorSMALLGEO, S400
Mass3,186 kg wet, ~1,700 kg dry
Launch date (UTC)
2019-08-06 (5 years ago)
Launch vehicle
ARIANE 5ECA+
Launch site
French Guiana (FRGUI)
Object type
Payload
Rocket body
Debris
Shape & HBRBox + 2 Pan, 20.8 m
Radar Cross Section22.899 m², Large (>1 m²)

Expand to show TLE details & history

TLE from 1 day ago
0 EDRS-C
1 44475U 19049A   24360.65040915  .00000182  00000-0  00000-0 0  9993
2 44475   0.0875 251.0196 0000639  42.2091  66.7715  1.00275334 19812
Epoch: 2024-12-25T15:36Z
Definitive object data (Epoch: 2024-12-25T15:36:35.35Z)
Latitude0.08234°
Longitude31.21161°
Altitude35,784.022 km
Speed3.075 km/s
True Right ascension00h 00m 00s
True Declination0° 04' 56"
Sunlit
Object was in daylight at TLE epoch
Visualization TLE readout
Latitude0.02722°
Longitude99.40218°
Altitude35,786.84 km
Speed3.075 km/s
Apparent Right ascension04h 49m 41s
Apparent Declination-5° 03' 03"
Sunlit
Object is in daylight
Visualization observer readout
Local Sidereal Time19:27:23
Azimuth56.03° ENE
Elevation-40.29°
Doppler factor1
Orbital elements
Apogee altitude35,789.365 km
Perigee altitude35,783.976 km
Semi-major axis42,164.807 km
Eccentricity0.0000639
Inclination0.0875°
RAAN251.0196°
Arg. of periapsis42.2091°
True anomaly66.77823°
Mean anomaly66.7715°
Eccentric anomaly66.77486°
Mean motion0.25068 °/min
BSTARUnknown
Orbital period1436.1 mins
Loading historical data...
44475 neighbors
Authenticating...
Loading maneuver chart data...
Loading historical data...
Loading historical data...
Loading historical data...
Loading historical data...
Loading historical data...
Loading historical data...
Loading historical data...
Other satellites on launch #49 in the year 2019 (2019-08-06 UTC)

EDRS-C Visibility forecast

Observer location: undefined°, undefined

EDRS-C is not visible in the next 10 days
Span
Click to sort rows by Start time (UTC) header in descending order
Start Az.
Max El. time (UTC)
Max El. Az.
Max El.
End time (UTC)
End Az.
|